[[{"header":{"parameterUnit":"m.s-1","parameterCategory":1,"la1":30.2992,"la2":30.254,"lo1":-89.0895,"lo2":-89.0443,"dy":0.0025,"dx":0.0025,"nx":19,"ny":19,"refTime":"2026-03-16T03:00:00:Z","depth":0,"parameterNumber":2,"parameterNumberName":"U-component_of_WINDS"},"data":[0,0,0,0.7419,0.7419,0.7411,0.7411,0.7391,0.7391,0,0,0,0,0,0,0,0,0,0,0,0.7415,0.7415,0.7419,0.7418,0.7411,0.7411,0.7391,0.7391,0,0,0,0,0,0,0,0,0,0,0,0.7416,0.7415,0.7415,0.7418,0.7411,0.7411,0.7391,0.74,0,0,0,0,0,0,0,0,0,0,0.7409,0.7401,0.7415,0.7415,0.7418,0.7411,0.7411,0.7401,0.74,0.7391,0,0.7381,0,0.7386,0.7389,0.7389,0,0,0,0.7422,0.7402,0.7405,0.7415,0.7418,0.7411,0.7415,0.74,0.7399,0.7389,0.7381,0.7381,0.7386,0.7389,0.7389,0.7325,0.7325,0,0,0.7423,0.7411,0.7406,0.7404,0.7405,0.7416,0.7415,0.74,0.739,0.7381,0.738,0.7385,0.7389,0.7388,0.7326,0.7325,0,0,0,0.7421,0.7411,0.7415,0.7405,0.7404,0.7415,0.7415,0.7391,0.7393,0.738,0.7385,0.7389,0.7388,0.7326,0.7326,0.7291,0,0,0,0.7422,0.741,0.7415,0.7407,0.7404,0.7397,0.7406,0.7394,0.7393,0.7385,0.7389,0.7388,0.7327,0.7326,0.7293,0.7275,0,0,0,0.7418,0.741,0.7407,0.7407,0.7403,0.7398,0.74,0.7394,0.7396,0.7389,0.7388,0.7327,0.7326,0.7295,0.7278,0.7255,0,0,0,0.741,0.7375,0.7406,0.7369,0.7403,0.7377,0.74,0.7381,0.7371,0.7388,0.7327,0.7326,0.7295,0.728,0.7257,0.7232,0.7221,0,0,0.7359,0.7368,0.7347,0.7375,0.7341,0.7379,0.734,0.7341,0.7351,0.7333,0.7332,0.7292,0.7278,0.7255,0.7166,0.7157,0,0,0,0.7327,0.7312,0.7306,0.7296,0.7298,0.7298,0.7308,0.7309,0.7295,0.734,0.7278,0.7271,0.7257,0.7246,0.7238,0.7228,0.732,0.7321,0.7321,0.7235,0.7252,0.7219,0.7235,0.7226,0.7238,0.7232,0.7235,0.7253,0.7238,0.7232,0.7176,0.7162,0.7157,0.7145,0.7222,0.7222,0.7222,0.7222,0.7161,0.7142,0.7169,0.7147,0.7165,0.7146,0.7157,0.717,0.7155,0.7182,0.7171,0.7197,0.7147,0.7137,0.7219,0.722,0.722,0.722,0.722,0.7101,0.7095,0.7099,0.7089,0.7079,0.7097,0.7082,0.7099,0.7114,0.7104,0.7099,0.71,0.7102,0.7101,0.7101,0.7101,0.7101,0.7101,0.71,0.7036,0.7042,0.7028,0.7029,0.7026,0.7025,0.7039,0.7037,0.7038,0.7052,0.7052,0.7071,0.714,0.7156,0.7097,0.7098,0.7098,0.7099,0.7099,0.6951,0.6974,0.6951,0.6949,0.6953,0.6943,0.6967,0.6961,0.6962,0.6954,0.6977,0.7026,0.7035,0.7041,0.7055,0.6974,0.6974,0.6974,0.6974,0.6899,0.6908,0.6889,0.6885,0.6882,0.6902,0.6876,0.6888,0.6902,0.6904,0.6919,0.6939,0.6944,0.6951,0.6959,0.6971,0.6871,0.6871,0.6871,0.6848,0.6857,0.6831,0.6848,0.6853,0.6857,0.6833,0.6827,0.6848,0.6867,0.6906,0.691,0.6942,0.6952,0.6968,0.6981,0.7004,0,0]},{"header":{"parameterUnit":"m.s-1","parameterCategory":1,"la1":30.2992,"la2":30.254,"lo1":-89.0895,"lo2":-89.0443,"dy":0.0025,"dx":0.0025,"nx":19,"ny":19,"refTime":"2026-03-16T03:00:00:Z","depth":0,"parameterNumber":3,"parameterNumberName":"V-component_of_WINDS"},"data":[0,0,0,-6.844,-6.8446,-6.8687,-6.8688,-6.9006,-6.9008,0,0,0,0,0,0,0,0,0,0,0,-6.8379,-6.8381,-6.844,-6.8446,-6.8687,-6.8688,-6.9005,-6.9008,0,0,0,0,0,0,0,0,0,0,0,-6.8378,-6.8381,-6.8384,-6.8447,-6.8687,-6.8688,-6.9004,-6.8818,0,0,0,0,0,0,0,0,0,0,-6.8582,-6.8536,-6.838,-6.8384,-6.8449,-6.8687,-6.8688,-6.8809,-6.883,-6.8901,0,-6.8972,0,-6.8995,-6.9031,-6.9032,0,0,0,-6.8438,-6.8518,-6.8575,-6.8384,-6.8451,-6.8687,-6.8576,-6.882,-6.8844,-6.8929,-6.8976,-6.8987,-6.9001,-6.9033,-6.9034,-6.9484,-6.9486,0,0,-6.8425,-6.8427,-6.8559,-6.8591,-6.8559,-6.8569,-6.8584,-6.8834,-6.8884,-6.8977,-6.8995,-6.9006,-6.9035,-6.9038,-6.9482,-6.9485,0,0,0,-6.8392,-6.8418,-6.8468,-6.8578,-6.8621,-6.8576,-6.8593,-6.8873,-6.8889,-6.8998,-6.901,-6.9037,-6.9041,-6.9479,-6.9483,-6.9608,0,0,0,-6.8384,-6.8399,-6.8462,-6.8466,-6.8617,-6.8751,-6.8627,-6.8872,-6.89,-6.9008,-6.9037,-6.9044,-6.9476,-6.9481,-6.9599,-6.9667,0,0,0,-6.8359,-6.8396,-6.8434,-6.8465,-6.857,-6.8747,-6.8778,-6.8878,-6.8908,-6.9032,-6.9045,-6.9474,-6.948,-6.9591,-6.9653,-6.9785,0,0,0,-6.8333,-6.8542,-6.8436,-6.8673,-6.8568,-6.8825,-6.8776,-6.8966,-6.9088,-6.9039,-6.9477,-6.9482,-6.9588,-6.9645,-6.9776,-6.9895,-6.9946,0,0,-6.8597,-6.8574,-6.8713,-6.8626,-6.8902,-6.8788,-6.9081,-6.9189,-6.9197,-6.9386,-6.9397,-6.9602,-6.9652,-6.9783,-7.023,-7.027,0,0,0,-6.8797,-6.8897,-6.897,-6.9087,-6.9177,-6.9257,-6.932,-6.936,-6.9521,-6.9296,-6.9686,-6.9715,-6.9792,-6.9848,-6.9883,-6.9947,-6.9509,-6.9509,-6.9508,-6.9172,-6.9174,-6.9403,-6.9433,-6.9547,-6.961,-6.9701,-6.9764,-6.9731,-6.9822,-6.9879,-7.015,-7.0217,-7.0243,-7.0309,-6.9943,-6.9943,-6.9944,-6.9944,-6.9558,-6.9698,-6.965,-6.9855,-6.9854,-7.0024,-7.0091,-7.0062,-7.0217,-7.0108,-7.0176,-7.0055,-7.0287,-7.0345,-6.9953,-6.9952,-6.9951,-6.995,-6.9949,-6.9803,-6.987,-6.9917,-7.0085,-7.0214,-7.0235,-7.0388,-7.038,-7.0374,-7.0441,-7.0497,-7.0495,-7.049,-7.0468,-7.0469,-7.047,-7.0471,-7.0472,-7.0472,-7.0038,-7.0086,-7.0218,-7.0329,-7.0402,-7.0497,-7.0561,-7.0631,-7.0707,-7.0689,-7.0689,-7.0645,-7.0311,-7.0225,-7.0487,-7.0484,-7.0483,-7.0481,-7.048,-7.0426,-7.0337,-7.054,-7.0614,-7.0742,-7.0869,-7.0858,-7.1001,-7.1058,-7.1132,-7.1074,-7.0829,-7.0803,-7.0775,-7.0705,-7.1075,-7.1075,-7.1075,-7.1075,-7.0632,-7.0619,-7.0824,-7.0941,-7.1055,-7.1065,-7.1289,-7.1339,-7.1376,-7.141,-7.1356,-7.1262,-7.1235,-7.1225,-7.1188,-7.1122,-7.159,-7.159,-7.1591,-7.0869,-7.0867,-7.1062,-7.11,-7.1199,-7.1283,-7.1493,-7.1626,-7.1649,-7.1611,-7.1436,-7.1415,-7.1263,-7.1214,-7.1172,-7.1115,-7.0994,0,0]}]]